Home   Weather   Rotnes   Past weeks

Flag for Norway Past Weather in Rotnes, Norway — Yesterday and Last 2 Weeks

44 °F

Quite cool.

Feels Like: 44 °F
Forecast: 34 / 45 °F
Wind: 2 mph from Northeast

Location: Oslo-Blindern

Current Time: Oct 25, 2016 at 2:13:04 PM

Latest Report: Oct 25, 2016 at 1:00 PM

Visibility: 31 mi

Pressure: 30.31 "Hg

Humidity: 79%

Dew Point: 37 °F

Location of RotnesLocation

Past Weather in Rotnes — Graph


Rotnes Temperature Yesterday

Maximum temperature yesterday: 44 °F (at 5:00 PM)
Minimum temperature yesterday: 40 °F (at 8:00 AM)
Average temperature yesterday: 42 °F

High & Low Weather Summary for the Past Weeks

High48 °F (Oct 10, 4:00 PM)97% (Oct 18, 5:00 AM)30.63 "Hg (Oct 18, 5:00 AM)
Low32 °F (Oct 14, 10:00 AM)58% (Oct 10, 5:00 PM)30.13 "Hg (Oct 18, 5:00 PM)
Average41 °F80%30.40 "Hg
* Reported Oct 10 12:00 PM — Oct 25 12:00 PM, Rotnes, Weather by CustomWeather, © 2016

Note: Actual official high and low records may vary slightly from our data, if they occured in-between our weather recording intervals... More about our weather records


Rotnes Weather History for the Previous 24 Hours

Scroll right to see more
Time TempWeatherWind HumidityBarometerVisibility
12:00 PM
Tue, Oct 25
43 °FQuite cool.3 mph83%30.31 "Hg31 mi
11:00 AM42 °FOvercast.3 mph84%30.31 "Hg40 mi
10:00 AM41 °FQuite cool.3 mph85%30.31 "Hg31 mi
9:00 AM41 °FQuite cool.5 mph86%30.30 "HgN/A
8:00 AM41 °FDrizzle. Overcast.3 mph88%30.30 "Hg40 mi
7:00 AM41 °FQuite cool.5 mph88%30.30 "Hg31 mi
6:00 AM41 °FDrizzle. Overcast.5 mph87%30.29 "Hg31 mi
5:00 AM41 °FQuite cool.5 mph89%30.30 "HgN/A
4:00 AM41 °FRain showers. Overcast.5 mph88%30.30 "Hg31 mi
3:00 AM41 °FDrizzle. Overcast.5 mph88%30.31 "Hg31 mi
2:00 AM41 °FDrizzle. Overcast.5 mph89%30.31 "Hg31 mi
12:00 AM42 °FLight rain. Overcast.5 mph88%30.32 "Hg12 mi
11:00 PM
Mon, Oct 24
42 °FLight rain. Overcast.6 mph88%30.31 "Hg11 mi
10:00 PM42 °FLight rain. Overcast.5 mph88%30.32 "Hg7 mi
9:00 PM42 °FQuite cool.5 mph90%30.32 "HgN/A
8:00 PM42 °FLight rain. Overcast.5 mph89%30.32 "Hg16 mi
7:00 PM42 °FLight rain. Overcast.6 mph89%30.32 "Hg9 mi
6:00 PM43 °FDrizzle. Overcast.6 mph87%30.32 "Hg7 mi
5:00 PM44 °FOvercast.6 mph83%30.32 "Hg31 mi
4:00 PM43 °FQuite cool.6 mph83%30.32 "Hg31 mi
3:00 PM43 °FQuite cool.6 mph85%30.32 "Hg31 mi
2:00 PM43 °FLight rain. Overcast.6 mph87%30.33 "Hg19 mi
Weather by CustomWeather, © 2016

See weather overviewHow to use our weather pages